When you browse on this site, cookies collect data to enhance your experience and personalize the content and advertising you see.
Visit our Privacy Policy to learn more. By continuing to use the site, you agree to this use of cookies and data.
  • In Lithuania
  • List of Countries
  • For 7 days
  • Water Temperature
  • Satellite Maps
  • Weather Map
  • Weather Widgets
  • user-avatar
    Login

    Hourly Weather Kowalow

    Today, 21 March, Thursday

    Time Temperature Precipitation Wind Pressure Humidity
    00:00 +4°C° 0 mm 2 mps 759 mmHg 64%
    01:00 +3°C° 0 mm 2 mps 759 mmHg 66%
    02:00 +2°C° 0 mm 3 mps 759 mmHg 67%
    03:00 +2°C° 0 mm 3 mps 759 mmHg 67%
    04:00 +2°C° 0 mm 3 mps 759 mmHg 67%
    05:00 +3°C° 0 mm 3 mps 759 mmHg 67%
    06:00 +4°C° 0 mm 2 mps 759 mmHg 67%
    07:00 +4°C° 0 mm 2 mps 759 mmHg 68%
    08:00 +6°C° 0 mm 2 mps 759 mmHg 65%
    09:00 +8°C° 0 mm 2 mps 759 mmHg 63%
    10:00 +10°C° 0 mm 3 mps 760 mmHg 60%
    11:00 +12°C° 0 mm 2 mps 759 mmHg 61%
    12:00 +13°C° 0 mm 2 mps 759 mmHg 61%
    13:00 +13°C° 0 mm 2 mps 759 mmHg 61%
    14:00 +14°C° 0 mm 2 mps 759 mmHg 62%
    15:00 +14°C° 0 mm 2 mps 758 mmHg 62%
    16:00 +14°C° 0 mm 2 mps 758 mmHg 62%
    17:00 +13°C° 0 mm 2 mps 758 mmHg 67%
    18:00 +12°C° 0 mm 1 mps 758 mmHg 73%
    19:00 +11°C° 0 mm 1 mps 758 mmHg 78%
    20:00 +10°C° 0 mm 1 mps 758 mmHg 80%
    21:00 +10°C° 0 mm 1 mps 758 mmHg 82%
    22:00 +9°C° 0 mm 1 mps 758 mmHg 83%
    23:00 +9°C° 0 mm 1 mps 758 mmHg 85%

    Tomorrow, 22 March, Friday

    Time Temperature Precipitation Wind Pressure Humidity
    00:00 +8°C° 0 mm 1 mps 758 mmHg 86%
    01:00 +8°C° 0 mm 1 mps 758 mmHg 87%
    02:00 +8°C° 0 mm 1 mps 758 mmHg 87%
    03:00 +8°C° 0 mm 1 mps 758 mmHg 88%
    04:00 +8°C° 0 mm 1 mps 758 mmHg 88%
    05:00 +8°C° 0 mm 1 mps 758 mmHg 87%
    06:00 +9°C° 0 mm 1 mps 758 mmHg 86%
    07:00 +9°C° 0 mm 1 mps 758 mmHg 86%
    08:00 +11°C° 0 mm 1 mps 758 mmHg 80%
    09:00 +12°C° 0 mm 1 mps 758 mmHg 75%
    10:00 +14°C° 0 mm 1 mps 758 mmHg 70%
    11:00 +15°C° 0 mm 1 mps 758 mmHg 67%
    12:00 +16°C° 0 mm 1 mps 758 mmHg 64%
    13:00 +17°C° 0 mm 2 mps 757 mmHg 60%
    14:00 +18°C° 0 mm 1 mps 757 mmHg 60%
    15:00 +18°C° 0 mm 1 mps 757 mmHg 59%
    16:00 +18°C° 0 mm 1 mps 756 mmHg 58%
    17:00 +16°C° 0 mm 1 mps 756 mmHg 65%
    18:00 +14°C° 0 mm 1 mps 756 mmHg 72%
    19:00 +13°C° 0 mm 1 mps 756 mmHg 79%
    20:00 +12°C° 0 mm 1 mps 756 mmHg 82%
    21:00 +11°C° 0 mm 1 mps 756 mmHg 85%
    22:00 +11°C° 0 mm 1 mps 756 mmHg 88%
    23:00 +10°C° 0 mm 1 mps 756 mmHg 88%

    Day after tomorrow, 23 March, Saturday

    Time Temperature Precipitation Wind Pressure Humidity
    00:00 +10°C° 0 mm 1 mps 756 mmHg 88%
    01:00 +10°C° 0 mm 1 mps 755 mmHg 88%
    02:00 +10°C° 0 mm 1 mps 755 mmHg 88%
    03:00 +9°C° 0 mm 1 mps 755 mmHg 88%
    04:00 +9°C° 0 mm 1 mps 754 mmHg 87%
    05:00 +9°C° 0 mm 1 mps 754 mmHg 86%
    06:00 +9°C° 0 mm 2 mps 754 mmHg 84%
    07:00 +9°C° 0 mm 2 mps 754 mmHg 82%
    08:00 +12°C° 0 mm 2 mps 754 mmHg 73%
    09:00 +14°C° 0 mm 2 mps 754 mmHg 65%
    10:00 +17°C° 0 mm 2 mps 754 mmHg 56%
    11:00 +17°C° 0 mm 2 mps 753 mmHg 52%
    12:00 +18°C° 0 mm 2 mps 753 mmHg 49%
    13:00 +19°C° 0 mm 2 mps 753 mmHg 45%
    14:00 +19°C° 0 mm 2 mps 752 mmHg 45%
    15:00 +20°C° 0 mm 2 mps 752 mmHg 45%
    16:00 +20°C° 0 mm 2 mps 752 mmHg 45%
    17:00 +19°C° 0 mm 1 mps 752 mmHg 50%
    18:00 +18°C° 0 mm 1 mps 752 mmHg 56%
    19:00 +15°C° 0 mm 1 mps 752 mmHg 61%
    20:00 +15°C° 0 mm 1 mps 753 mmHg 62%
    21:00 +14°C° 0 mm 1 mps 753 mmHg 64%
    22:00 +14°C° 0 mm 2 mps 753 mmHg 66%
    23:00 +13°C° 0 mm 2 mps 753 mmHg 72%

    24 March, Sunday

    Time Temperature Precipitation Wind Pressure Humidity
    00:00 +11°C° 0 mm 3 mps 753 mmHg 78%
    01:00 +10°C° 0 mm 3 mps 753 mmHg 84%
    02:00 +10°C° 0 mm 3 mps 753 mmHg 84%
    03:00 +9°C° 0 mm 3 mps 753 mmHg 85%
    04:00 +9°C° 0 mm 3 mps 753 mmHg 85%
    05:00 +9°C° 0.1 mm 3 mps 754 mmHg 85%
    06:00 +8°C° 0.1 mm 3 mps 754 mmHg 85%
    07:00 +8°C° 0.1 mm 3 mps 754 mmHg 84%
    08:00 +8°C° 0 mm 2 mps 754 mmHg 81%
    09:00 +9°C° 0 mm 2 mps 754 mmHg 77%
    10:00 +9°C° 0 mm 2 mps 754 mmHg 73%
    11:00 +11°C° 0 mm 1 mps 753 mmHg 71%
    12:00 +11°C° 0 mm 1 mps 753 mmHg 69%
    13:00 +12°C° 0 mm 1 mps 752 mmHg 67%
    14:00 +12°C° 0 mm 1 mps 752 mmHg 68%
    15:00 +12°C° 0 mm 1 mps 751 mmHg 68%
    16:00 +12°C° 0 mm 1 mps 750 mmHg 69%
    17:00 +11°C° 0 mm 1 mps 750 mmHg 70%
    18:00 +11°C° 0 mm 1 mps 750 mmHg 70%
    19:00 +10°C° 0 mm 1 mps 750 mmHg 71%
    20:00 +10°C° 0 mm 1 mps 750 mmHg 71%
    21:00 +9°C° 0 mm 0 mps 749 mmHg 70%
    22:00 +9°C° 0 mm 0 mps 749 mmHg 70%
    23:00 +9°C° 0 mm 1 mps 749 mmHg 71%

    25 March, Monday

    Time Temperature Precipitation Wind Pressure Humidity
    00:00 +9°C° 0 mm 1 mps 748 mmHg 72%
    01:00 +7°C° 0 mm 2 mps 748 mmHg 74%
    02:00 +7°C° 0.8 mm 2 mps 748 mmHg 78%
    03:00 +6°C° 0.8 mm 2 mps 747 mmHg 82%
    04:00 +4°C° 0.8 mm 3 mps 747 mmHg 87%
    05:00 +4°C° 0 mm 3 mps 747 mmHg 86%
    06:00 +4°C° 0 mm 3 mps 748 mmHg 86%
    07:00 +4°C° 0 mm 4 mps 748 mmHg 85%
    08:00 +5°C° 0 mm 4 mps 748 mmHg 76%
    09:00 +7°C° 0 mm 5 mps 748 mmHg 66%
    10:00 +8°C° 0 mm 5 mps 748 mmHg 57%
    11:00 +8°C° 0.1 mm 6 mps 748 mmHg 58%
    12:00 +8°C° 0.1 mm 6 mps 748 mmHg 58%
    13:00 +8°C° 0.1 mm 6 mps 747 mmHg 59%
    14:00 +8°C° 0 mm 7 mps 747 mmHg 55%
    15:00 +9°C° 0 mm 7 mps 746 mmHg 51%
    16:00 +9°C° 0 mm 7 mps 746 mmHg 47%
    17:00 +8°C° 0.1 mm 7 mps 746 mmHg 53%
    18:00 +6°C° 0.1 mm 7 mps 746 mmHg 60%
    19:00 +5°C° 0.1 mm 7 mps 746 mmHg 66%
    20:00 +4°C° 0.1 mm 7 mps 746 mmHg 67%
    21:00 +3°C° 0.1 mm 7 mps 746 mmHg 68%
    22:00 +2°C° 0.1 mm 7 mps 746 mmHg 69%
    23:00 +2°C° 0 mm 7 mps 746 mmHg 70%

    26 March, Tuesday

    Time Temperature Precipitation Wind Pressure Humidity
    00:00 0°C° 0 mm 7 mps 746 mmHg 71%
    01:00 -1°C° 0 mm 7 mps 746 mmHg 72%
    02:00 -1°C° 0 mm 7 mps 746 mmHg 71%
    03:00 -1°C° 0 mm 8 mps 745 mmHg 71%
    04:00 -1°C° 0 mm 8 mps 745 mmHg 71%
    05:00 -1°C° 0 mm 9 mps 745 mmHg 69%
    06:00 -2°C° 0 mm 10 mps 745 mmHg 68%
    07:00 -2°C° 0 mm 10 mps 745 mmHg 66%
    08:00 -2°C° 0.2 mm 11 mps 746 mmHg 63%
    09:00 -2°C° 0.2 mm 11 mps 746 mmHg 59%
    10:00 -1°C° 0.2 mm 12 mps 746 mmHg 56%
    11:00 -1°C° 0.1 mm 11 mps 747 mmHg 55%
    12:00 -1°C° 0.1 mm 11 mps 747 mmHg 53%
    13:00 +1°C° 0.1 mm 11 mps 748 mmHg 52%
    14:00 +1°C° 0 mm 11 mps 748 mmHg 51%
    15:00 +1°C° 0 mm 10 mps 748 mmHg 51%
    16:00 +1°C° 0 mm 10 mps 749 mmHg 50%
    17:00 0°C° 0 mm 9 mps 750 mmHg 53%
    18:00 -1°C° 0 mm 8 mps 750 mmHg 56%
    19:00 -1°C° 0 mm 6 mps 751 mmHg 58%
    20:00 -2°C° 0 mm 7 mps 752 mmHg 59%
    21:00 -2°C° 0 mm 7 mps 752 mmHg 60%
    22:00 -2°C° 0 mm 7 mps 752 mmHg 61%
    23:00 -3°C° 0 mm 7 mps 753 mmHg 63%
    Show more